Regional Weather Roundup
Issued by NWS Pendleton, OR

Home | Current Version | Previous Version | Text Only | Print | Product List | Glossary On
Versions: 1 2 3 4 5 6 7 8 9 10 11 12 13 14 15 16 17 18 19 20 21 22 23 24 25 26 27 28 29 30 31 32 33 34 35 36 37 38 39 40 41 42 43 44 45 46 47 48 49 50
000
ASUS46 KPDT 241225
RWRPDT
PENDLETON REGIONAL WEATHER ROUNDUP
NATIONAL WEATHER SERVICE PENDLETON OREGON
500 AM PDT THU APR 24 2014

NOTE: FAIR INDICATES FEW OR NO CLOUDS BELOW 12,000 FEET WITH NO
SIGNIFICANT WEATHER AND/OR OBSTRUCTIONS TO VISIBILITY.

# INDICATES UNOFFICIAL STATION AND DATA

WAZ520-241310-
EAST SLOPES OF WASHINGTON CASCADES

CITY            SKY/WX      TMP DP  RH  WIND    PRES   REMARKS
#CLE ELUM HS    N/A         38  37  96  CALM    29.65F
#CLE ELUM 2NW   N/A         38  37  96  CALM    N/A
#CLE ELUM LAKE  N/A         37  36  96  CALM    29.67F
#CLIFFDEL 2NW   N/A         35  34  96  E1      N/A
#GLENWOOD       N/A         45  44  96  S1      29.72F
#MANASTASH CYN  N/A         40  37  89  CALM    29.66F
#NELSON         N/A         38  37  96  CALM    29.71F
#NELSON 3SW     N/A         36  35  96  CALM    29.90F
#NILE           N/A         40  39  96  W1      29.01F
#RONALD 2NW     N/A         38  35  89  CALM    29.54F
#TEANAWAY 4NE   N/A         39  39  100 CALM    N/A
#TROUT LAKE HS  N/A         46  46  100 CALM    N/A
#TROUT LAKE 1NE N/A         44  43  96  CALM    29.73F
$$

WAZ521-241310-
SIMCOE HIGHLANDS

CITY            SKY/WX      TMP DP  RH  WIND    PRES   REMARKS
#BICKLETON HS   N/A         42  41  96  SW6     29.76S
#CENTERVILLE 4W N/A         46  43  89  S2      29.50S
#GOLDENDALE 1NE N/A         47  45  93  CALM    N/A
#GOODNOE HILLS  N/A         47  46  96  W7      29.69S
#LYLE 6NE       N/A         46  44  93  CALM    29.71F
$$

WAZ026-241310-
KITTITAS VALLEY

CITY            SKY/WX      TMP DP  RH  WIND    PRES   REMARKS
ELLENSBURG AP   CLOUDY      46  42  86  CALM    29.66F
6HR MIN TEMP:   45; 6HR MAX TEMP:   48; 6HR PCP:  TRACE;

#ELLENSBURG CWU N/A         42  40  93  W3      29.63F
#ELLENSBURG 3NE N/A         45  43  93  CALM    29.69F
#ELLENSBURG     N/A         46  46  100 CALM    N/A
#ELLENSBURG 1E  N/A         43  41  93  CALM    N/A
#KITTITAS 3S    N/A         43  42  96  CALM    29.66F
#THORP 6N       N/A         38  37  96  N3      29.71F
$$

WAZ027-241310-
YAKIMA VALLEY

CITY            SKY/WX      TMP DP  RH  WIND    PRES   REMARKS
YAKIMA AIRPORT  CLOUDY      53  42  66  S14     29.66F
6HR MIN TEMP:   51; 6HR MAX TEMP:   53;

YAKIMA-VAGABOND MOCLDY      51  42  71  S22G32  29.66F
#COWICHE 1N     N/A         44  39  82  NW1     29.83F
#DONALD 2NE     N/A         51  41  68  E1      30.01F
#GRANDVIEW      N/A         52  42  69  SW3     29.74F
#MABTON         N/A         54  45  71  S10     29.72F
#MOXEE 2E       N/A         51  36  56  S8      29.63F
#NACHES 2SW     N/A         41  39  93  CALM    29.68S
#OUTLOOK DOT    N/A         51  43  74  SE14    N/A
#SELAH 8E       N/A         47  41  79  S18G28  N/A    WCI 40
#TERRACE HTS    N/A         50  43  77  S6      29.65F
#TOPPENISH      N/A         53  44  71  CALM    29.62F
#WAPATO 4NE     N/A         51  41  68  E1      30.01F
#WEST VALLEY    N/A         48  42  80  CALM    29.69F
#W YAKIMA       N/A         49  42  77  CALM    29.67F
#WHITE SWAN 5E  N/A         51  42  71  SW2     29.69F
#WILEY CITY 3W  N/A         43  32  65  CALM    29.68S
$$

WAZ028-241310-
LOWER COLUMBIA BASIN...WASHINGTON

CITY            SKY/WX      TMP DP  RH  WIND    PRES   REMARKS
HANFORD         CLOUDY      53  44  71  S18G28  29.68S
6HR MIN TEMP:   49; 6HR MAX TEMP:   56; 6HR PCP:  TRACE;

PASCO           LGT RAIN    53  47  80  CALM    29.74S
6HR MIN TEMP:   50; 6HR MAX TEMP:   53; 6HR PCP:  0.07;

PROSSER AWOS    N/A         54  45  71  SW2     29.75F
RICHLAND AWOS   RAIN        52  48  86  SE5     29.73S
#BASIN CITY 5SW N/A         49  46  89  S1      29.72F
#BENTON CITY    N/A         52  46  80  S12     29.63F
#CONNELL 5N     N/A         47  45  93  SE3     29.73S
#CONNELL 5NW    N/A         48  46  93  S6      29.70S
#ELTOPIA        N/A         50  48  93  CALM    29.70S
#ELTOPIA 6NW    N/A         48  47  96  SE2     28.71S
#KENNEWICK 3S   N/A         51  46  83  S7      29.74R
#PASCO-BROADMOORN/A         51  48  89  CALM    29.65R
#PATERSON       N/A         50  47  89  SW3     29.74R
#PROSSER        N/A         51  43  74  SE14    29.72F
#SAGEMOOR 2W    N/A         49  47  93  CALM    29.59S
#TOUCHET 2S     N/A         54  46  74  SW15    29.73R
#WEST PASCO     N/A         52  46  80  E1      29.69F
$$

WAZ029-241310-
FOOTHILLS OF THE BLUES...WASHINGTON

CITY            SKY/WX      TMP DP  RH  WIND    PRES   REMARKS
WALLA WALLA AP  RAIN        53  44  71  S18     29.77R
6HR MIN TEMP:   51; 6HR MAX TEMP:   53; 6HR PCP:  0.30;

#COLLEGE PLACE  N/A         53  43  69  S12     29.79R
#LOWDEN 2SE     N/A         56  46  69  SW10    29.73R
#PLEASANT VIEW 1N/A         46  44  93  SE10    29.79F
#PRESCOTT       N/A         51  47  86  S2      29.75S
#SUDBURY        N/A         55  N/A N/A SW2     N/A
#WHITMAN COLLEGEN/A         52  45  77  SE2     29.83R
#WAITSBURG 8N   N/A         48  39  71  S13     29.65S WCI 43
#WALLA WALLA 5E N/A         52  44  74  SE6     N/A
#WALLA WALLA U  N/A         53  46  77  SE2     29.76R
#WHITMAN MISSIONN/A         55  46  72  S7      29.77R
$$

WAZ030-241310-
BLUE MOUNTAINS...WASHINGTON

CITY            SKY/WX      TMP DP  RH  WIND    PRES   REMARKS
$$

ORZ009-041-WAZ024-241310-
COLUMBIA RIVER GORGE

CITY            SKY/WX      TMP DP  RH  WIND    PRES   REMARKS
HOOD RIVER AP   LGT RAIN    48  46  93  CALM    29.74S
THE DALLES AP   CLOUDY      49  47  93  NE5     29.74F
6HR MIN TEMP:   49; 6HR MAX TEMP:   51; 6HR PCP:  0.04;

#ARLINGTON AIRPON/A         48  47  96  S3      N/A
#ARLINGTON HS   N/A         50  48  93  SE2     29.68R
#CELILO DOT     N/A         49  47  93  CALM    N/A
#MOSIER 1S      N/A         47  45  93  E2      29.80S
#MURDOCK        N/A         50  49  96  CALM    29.77F
#RUFUS DOT      N/A         50  48  93  NW5     N/A

$$

ORZ510-241310-
NORTH CENTRAL OREGON

CITY            SKY/WX      TMP DP  RH  WIND    PRES   REMARKS
#CHENOWITH 1W   N/A         45  -43  2  S8      N/A
#COW CYN RST AREN/A         45  -62  0  SW12    N/A    WCI 39
#GRASS VALLEY   N/A         43  42  96  SE2     N/A
#GRASS VALLEY 1SN/A         43  41  93  SW2     29.77R
#KENT DOT       N/A         44  36  73  S12     N/A    WCI 38
#MAUPIN SCHOOL  N/A         49  43  80  CALM    29.80S
#MORO SCHOOL    N/A         46  45  96  SW1     29.77F
#SHANIKO 5WSW   N/A         42  33  70  S22     N/A    WCI 33
#SHANIKO 4NW    N/A         42  38  86  S13G25  29.75S WCI 35
#TYGH VALLEY 2NEN/A         48  43  83  CALM    29.76S
#WASCO DOT      N/A         48  44  86  CALM    N/A
#WASCO 5NE      N/A         46  43  89  CALM    29.76S
$$

ORZ511-241310-
CENTRAL OREGON

CITY            SKY/WX      TMP DP  RH  WIND    PRES   REMARKS
BEND AIRPORT    PTCLDY      45  36  70  SW15    29.84R WCI 38
MADRAS AIRPORT  CLOUDY      45  41  86  S6      29.81R
REDMOND AIRPORT LGT RAIN    45  37  73  S16G25  29.81R WCI 38
6HR MIN TEMP:   45; 6HR MAX TEMP:   48; 6HR PCP:  TRACE;

#BEND 6E        N/A         44  34  68  CALM    29.79R
#BEND 1SW       N/A         40  38  92  S2      N/A
#BEND-AWBREY    N/A         41  39  93  NE13    29.82R WCI 34
#BEND-KIM LN    N/A         42  38  86  SW3     29.77R
#CULVER         N/A         46  38  73  SW6     29.76R
#LAKE BILLY CHINN/A         46  31  56  S3      29.87R
#POWELL BUTTE 3EN/A         47  36  65  SW16G31 N/A    WCI 41
#POWELL BUTTE   N/A         45  36  70  SW8     29.48R
#PRINEVILLE AIR N/A         51  40  66  S15     29.80S
#PRINEVILLE 3N  N/A         47  38  71  SE14    29.76S WCI 41
#WARM SPRINGS   N/A         51  41  68  SE2     29.78R


ORZ509-241310-
EAST SLOPES OF OREGON CASCADES

CITY            SKY/WX      TMP DP  RH  WIND    PRES   REMARKS
#BLUE BOX PASS  N/A         36  -13 11  SW12    N/A    WCI 28
#CAMP SHERMAN   N/A         40  38  92  CALM    29.78R
#LA PINE DOT    N/A         40  35  82  SW3     N/A
#LA PINE 4NW    N/A         40  35  82  CALM    29.91R
#LAVA BUTTE DOT N/A         38  36  92  SE2     N/A
#SISTERS AIRPOR N/A         43  43  100 CALM    29.83R
#SISTERS ODOT   N/A         43  N/A N/A CALM    N/A
#SISTERS 3N     N/A         42  41  96  NW2     29.86R
#SUNRIVER       N/A         40  38  92  S2      29.76R
#SUNRIVER AP    N/A         39  37  92  SW5     29.83R
#SUTTLE LK DOT  N/A         32  32  100 SE14    N/A    WCI 22
#TUMALO 3W      N/A         42  36  79  S7      29.70R
#WANOGA BUTTE D N/A         31  31  100 W9      N/A

$$

ORZ044-241310-
LOWER COLUMBIA BASIN...OREGON

CITY            SKY/WX      TMP DP  RH  WIND    PRES   REMARKS
HERMISTON       CLOUDY      53  46  77  SW8     29.75R
6HR MIN TEMP:   51; 6HR MAX TEMP:   55; 6HR PCP:  0.01;

#BOARDMAN SCHOOLN/A         50  48  93  CALM    29.76R
#BOARDMAN 8SW   N/A         50  48  93  W3      29.76R
#IONE SCHOOL    N/A         52  41  66  SW6     29.77R
#IRRIGON 4NW    N/A         50  49  96  S2      N/A
#UMATILLA       N/A         53  45  74  S1      29.73R
$$

ORZ507-241310-
NORTHERN FOOTHILLS OF THE BLUES

CITY            SKY/WX      TMP DP  RH  WIND    PRES   REMARKS
PENDLETON AIRPT LGT RAIN    50  43  77  S6      29.77R
6HR MIN TEMP:   48; 6HR MAX TEMP:   51; 6HR PCP:  0.09;

#ADAMS 3WNW     N/A         48  45  89  SW3     29.79R
#ATHENA         N/A         49  44  83  E2      29.81R
#HELIX SCHOOL   N/A         49  44  83  SW10    29.78R
#HELIX 3N       N/A         48  44  86  S17G26  29.76R WCI 42
#M-F FERNDALE   N/A         54  43  66  SE1     29.77R
#M-F GROVE ELEM N/A         52  41  66  SE5     29.76S
#M-FREEWATER 5SEN/A         51  43  74  E3      29.79R
#PDT AQUATIC CTRN/A         54  42  64  S6      29.78R
#PENDLETON DNTN N/A         52  47  83  SW7     29.75R
#PDT SUNRIDGE   N/A         52  45  77  S5      29.78R
#PENDLETON 7NW  N/A         51  43  74  CALM    29.72S
#PILOT ROCK     N/A         51  40  66  SE14    29.80R
#TUTUILLA       N/A         50  41  71  S9      29.71R
#UMAPINE 2E     N/A         54  46  74  SE7     29.70R
#WESTON SCHOOL  N/A         48  41  77  SW7     29.83R

$$

ORZ508-241310-
SOUTHERN FOOTHILLS OF THE BLUES

CITY            SKY/WX      TMP DP  RH  WIND    PRES   REMARKS
LEXINGTON       RAIN        52  45  77  S10     29.79R
#AJAX           N/A         47  38  71  N12     29.78S WCI 42
#CONDON SCHOOL  N/A         46  42  86  S15     29.75S WCI 40
#CONDON 5W      N/A         43  39  86  S15G26  29.74S WCI 36
#FOSSIL SCHOOL  N/A         46  42  86  CALM    29.78R
#HEPPNER 4NE    N/A         47  41  79  N1      29.77R
#LEXINGTON 2SE  N/A         54  43  66  SW10    29.73R
#MIKKALO        N/A         48  42  80  S2      29.76R
#OLEX 4N        N/A         48  46  93  W1      29.77R
#RUGGS 5NE      N/A         47  39  74  S20     30.01S WCI 40
#RUGGS 2SW      N/A         47  40  76  SW12    29.83R WCI 42

$$

ORZ502-503-241310-
BLUE MOUNTAINS

CITY            SKY/WX      TMP DP  RH  WIND    PRES   REMARKS
MEACHAM         LGT RAIN    41  39  93  CALM    29.80S
#BATTLE MTN DOT N/A         39  39  100 S6      N/A
#HARDMAN 10S    N/A         39  38  96  S3      29.87S
#HEPPNER 15SE   N/A         39  37  92  S2      29.71R
#LADD CYN SMT   N/A         41  37  86  SE16    N/A    WCI 33
#LADD CREEK ODOTN/A         42  41  96  S7      N/A
#LONG CREEK HS  N/A         42  40  93  SW15    29.76S WCI 34
#N POWDER DOT   N/A         42  41  96  S14     N/A    WCI 35
#TOLLGATE 9W    N/A         39  39  100 SE7     N/A
#TROY SCHOOL    N/A         43  41  93  CALM    29.70S
#UKIAH          N/A         42  40  93  CALM    29.86F
#WESTON 4E      N/A         42  40  93  SE7     29.76R
$$

ORZ505-241310-
JOHN DAY BASIN

CITY            SKY/WX      TMP DP  RH  WIND    PRES   REMARKS
JOHN DAY        CLOUDY      45  39  79  W10     29.85S
#JOHN DAY KJDY  N/A         47  41  79  W5      29.83S
#DAYVILLE SCHOOLN/A         49  40  71  S3      29.81S
#MITCHELL SCHOOLN/A         49  40  71  CALM    29.89R
#MONUMENT HS    N/A         46  43  89  CALM    29.79R
#MT. VERNON 5SE N/A         41  37  86  SE8     29.78F
$$

ORZ506-241310-
OCHOCO AND JOHN DAY HIGHLANDS

CITY            SKY/WX      TMP DP  RH  WIND    PRES   REMARKS
#ANTONE         N/A         32  N/A N/A CALM    N/A
#BUCK CREEK DOT N/A         44  41  89  SE5     N/A
#HORSE RIDGE DO N/A         43  33  67  SE7     N/A
#KEYES SMT DOT  N/A         43  35  73  SW6     N/A
#PAULINA SCHOOL N/A         46  43  89  SW1     29.85R
#PINE MTN OBS   N/A         32  31  96  S15G26  N/A    WCI 22
#PRAIRIE CITY   N/A         40  38  92  CALM    29.93S
#SENECA 9NW     N/A         38  37  96  CALM    29.87S
$$

ORZ049-241310-
GRANDE RONDE VALLEY

CITY            SKY/WX      TMP DP  RH  WIND    PRES   REMARKS
LA GRANDE       CLOUDY      45  36  70  S9      29.82S
#COVE           N/A         45  42  89  S5      29.76R
#COVE SCHOOL    N/A         45  40  82  E3      29.82R
#COVE 6NW       N/A         43  39  86  S2      29.90R
#ELGIN 3N       N/A         43  40  89  SW8     29.56S
#ELGIN 1E       N/A         44  40  86  CALM    N/A
#IMBLER SCHOOL  N/A         42  38  86  CALM    29.80S
#ISLAND CITY 4N N/A         43  41  93  SW3     29.81R
#LADD CYN DOT   N/A         45  38  76  SW15    N/A    WCI 38
#LA GRANDE ELEM N/A         43  41  93  CALM    29.82F
#UNION 1S       N/A         46  40  79  S6      29.74S
$$

ORZ050-241310-
WALLOWA COUNTY

CITY            SKY/WX      TMP DP  RH  WIND    PRES   REMARKS
JOSEPH AIRPORT  LGT RAIN    37  36  96  CALM    29.82R
#ENTERPRISE HS  N/A         40  37  89  CALM    29.84S
#IMNAHA SCHOOL  N/A         50  36  58  S10     29.78S
#JOSEPH 3N      N/A         37  35  92  NW2     29.85R
#LOSTINE        N/A         38  36  92  CALM    29.65F
#MT HOWARD 8000 N/A         28  26  92  SW14G31 29.75F WCI 17
#PROMISE 1S     N/A         40  38  92  E2      29.92S
#SHEEP RDG 7000 N/A         30  28  92  CALM    29.90F
#WALLOWA SCHOOL N/A         39  38  96  CALM    30.80S



$$



USA.gov is the U.S. government's official web portal to all federal, state and local government web resources and services.